Погода в Владимире

Хотите узнать прогноз погоды в Владимире? Тогда Вам сюда: Погода в Владимире

Поиск расширенной информации на нашем сайте:

Полезная информация:

Новости сайта



02.01.2020
Опубликован Долгосрочный прогноз погоды по городам России и ближнего зарубежья на январь 2020 года.
Карты: Прогноз на январь и февраль 2020 года, Сравнение прогнозируемой аномалии приземной температуры воздуха на январь 2020 года по разным моделям.




Погода в Владимире - сегодня

Время (UTC), дата Ветер
(°,м/с) 
Видим.   Явления Облачность Т
(°С)
Тd
(°С)
f(%) Тe
(°С)
Pmin
(гПа)
dP
(гПа)
Po
(мм)
O2
(г/м3)
Тmin Tmax R s Состояние
почвы
09 04.06.20 170 (Ю) 10 км    8/8 500 м кучево-дожд. 
[Cb cap]
+19.2 +12.6 66 +25  1004  0.5  738  275           
12 04.06.20 200 (Ю) 10 км    9/4 600 м средняя 
[Sc|Ac und]
+20.6 +11.4 56 +24  1004.2  0.3  738  275           
15 04.06.20 220 (ЮЗ) 10 км    8/5 600 м кучево-дожд., верхняя 
[Cb calv|Ci fib]
+20 +8.8 48 +20  1004.5  0.2  739  276    +21.6       
18 04.06.20 180 (Ю) 10 км  {ливн. осадки}  3/3 600 м 
[Sc]
+13.6 +9.8 78 +15  1006.6  1.7  740  282           
21 04.06.20 190 (Ю) 10 км    ясно 
+12.4 +9.8 84 +14  1008.3  1.6  741  284           
00 05.06.20 180 (Ю) 4000 м  дымка  ясно 
+10.4 +8.7 89 +11  1010.5  742  287           
03 05.06.20 150 (ЮВ) 4000 м  дымка  8/0 верхняя 
[Ci fib]
+11.2 +9 86 +12  1011.4  743  286  +10.1      влажная 
06 05.06.20 170 (Ю) 10 км    9/0 верхняя 
[Ci fib]
+17.1 +9.7 62 +19  1011.5  0.5  744  280           
09 05.06.20 180 (Ю) 3{10}  10 км    9/6 600 м верхняя 
[Cu med, cong|Ci fib]
+20.4 +6.5 40 +20  1011.7  0.4  744  278           
12 05.06.20 160 (Ю) 10 км    8/8 600 м 
[Cu med, cong]
+22.3 +6 35 +22  1010.5  -1  743  276           
15 05.06.20 230 (ЮЗ) 5{11}  10 км  гроза без осадков  8/8 700 м кучево-дожд. 
[Cb calv]
+17.6 +8 53 +18  1011.4  0.5  743  280    +22.3       
18 05.06.20 090 (В) 10 км  слаб. ливневой дождь{гроза}  9/6 630 м кучево-дожд., средняя 
[Cb cap|Ac und]
+13.2 +11.1 87 +17  1012.2  0.5  744  284           
21 05.06.20 170 (Ю) 10 км  {ливн. осадки}  9/6 600 м кучево-дожд., средняя 
[Cb cap|Ac und]
+13.1 +10.5 84 +16  1012.4  0.2  744  284           
00 06.06.20 160 (Ю) 4000 м  дымка{ливн. осадки}  10/8 420 м средняя 
[Sc|Ac As]
+11.8 +10.4 91 +15  1012.8  0.3  744  286           
03 06.06.20 210 (ЮЗ) 4000 м  дымка  10/8 450 м средняя 
[Sc|Ac As]
+11.9 +10.5 91 +14  1013.2  0.5  745  286  +11.7    0.7    влажная 
06 06.06.20 140 (ЮВ) 10 км    8/8 570 м 
[Sc]
+16.9 +10.7 67 +20  1013.4  0.5  745  281           
09 06.06.20 320 (СЗ) 10 км    8/8 600 м кучево-дожд. 
[Cb calv]
+17.8 +9.8 59 +20  1013.6  0.3  745  280           
12 06.06.20 240 (ЮЗ) 10 км    8/5 600 м верхняя 
[Cu med, cong|Ci fib]
+20.6 +7.9 44 +21  1013.4  745  278           
15 06.06.20 260 (З) 10 км    8/3 600 м верхняя 
[Sc diur, vesp|Ci fib]
+20.2 +8.7 48 +20  1013.5  745  278    +21.2       
18 06.06.20 200 (Ю) 10 км    8/3 600 м верхняя 
[Sc|Ci fib]
+14.8 +10.8 77 +18  1014.4  0.6  746  283           
21 06.06.20 180 (Ю) 10 км    8/5 600 м верхняя 
[Sc|Ci fib]
+14.1 +9.6 74 +16  1015.2  0.7  746  284           
00 07.06.20 200 (Ю) 10 км    10/6 600 м средняя 
[Sc|Ac und]
+14.5 +10.3 76 +18  1015.4  0.2  746  284           
03 07.06.20 тихо ()   10 км    8/3 600 м средняя 
[Sc|Ac trans]
+16.2 +10.9 71 +19  1016.1  0.8  747  282  +13.2        влажная 
06 07.06.20 160 (Ю) 10 км    4/3 600 м верхняя 
[Sc|Ci fib]
+21.8 +12.6 56 +27  1016.3  0.6  747  276           
09 07.06.20 140 (ЮВ) 10 км    9/6 600 м средняя 
[Sc|Ac trans]
+24 +13.4 52 +30  1016.7  0.6  748  274           
Время (UTC), дата Ветер
(°,м/с) 
Видим.   Явления Облачность Т
(°С)
Тd
(°С)
f(%) Тe
(°С)
Pmin
(гПа)
dP
(гПа)
Po
(мм)
O2
(г/м3)
Тmin Tmax R s Состояние
почвы

Для получения пояснительной информации подведите курсор к названию столбца.

ПОГОДА в Владимире - архив

Всё, что Вы хотите узнать о погоде в Владимире - удобно и подробно!

Выберите нужную дату (начиная с 1 января 2019* года) и нажмите кнопку "Найти".
Будут отображены архивные сводки погоды по пункту Владимир, начиная с указанной даты.


Отображать данные в формате CSV (для использования в таблицах Excel)


Внимание! Наш архив погоды предназначен исключительно для личного некоммерческого использования в познавательных целях. Если Вам необходимы официальные справки о состоянии погоды (для производственных, юридических, коммерческих и т.п. целей), обращайтесь в органы Росгидромета.

*Примечание: данная дата относится к архиву по метеостанциям СССР (Россия, СНГ, Балтия).
Архив по метеостанциям Зарубежной Европы и Азии (кроме Китая) хранится 10 дней, по другим регионам земного шара (Китай, Африка, Америка, Австралия, Океания) - 1 день.

Владимир - район местоположения метеостанции


Название, широта, долгота, высота метеостанции:
Владимир 56.1°ш. 40.3°д. 172 м над ур. моря [Российская Федерация]

Дополнительная информация

В oтличие oт бoльшинства пoгoдных сайтoв мы публикуем пoдрoбную метеoинфoрмацию в детальнoм прoфессиoнальнoм фoрмате.

Характеристики температуры и влажнoсти вoздуха измеряются на высoте 2 м в тени вдали oт зданий и деревьев.
Скoрoсть ветра измеряется на высoте 10 м (на урoвне рoста челoвека скoрoсть ветра ниже в 1.5-2 раза). Если метеoстанция нахoдится в гoрoде или в лесу, тo скoрoсть ветра занижена на 2-4 м/с пo сравнению с oткрытым местoм. Скoрoсть ветра над акватoриями крупных рек и oзёр, а также на вершинах хoлмoв на 2-5 м/с выше, чем в oбычных услoвиях.
Атмoсфернoе давление в разных тoчках местнoсти мoжет значительнo oтличаться oт давления на метеoстанции, в зависимoсти oт услoвий рельефа (при пoдъёме на 10 м давление пoнижается примернo на 1 мм рт.ст.).